Location: ???????
(55.2903°N, 39.1554°E)
Time: 22:25:34
(UTC+00:00)

BlueWalker 3 - Visible Passes

Search period start: 20 June 2025 00:00
Search period end: 30 June 2025 00:00
Orbit: 460 x 472 km, 53.2° (Epoch: 20 June)

Date Brightness Start Highest point End Pass type
(mag) Time Alt. Az. Time Alt. Az. Time Alt. Az.
25 Jun 3.8 23:10:44 10° S 23:12:56 15° SE 23:15:09 10° ESE visible
26 Jun 3.9 22:39:02 11° SSE 22:40:37 13° SE 22:42:29 10° ESE visible
27 Jun 4.0 22:07:28 11° SSE 22:08:19 12° SE 22:09:38 10° ESE visible
27 Jun 2.6 23:41:52 10° SW 23:45:15 36° SSE 23:48:37 10° E visible
28 Jun 2.7 23:09:44 11° SW 23:12:52 33° SSE 23:16:10 10° E visible
29 Jun 2.8 22:38:02 15° SSW 22:40:29 29° SSE 22:43:42 10° E visible
